CDT,Max TemperatureF,Mean TemperatureF,Min TemperatureF,Max Dew PointF,MeanDew PointF,Min DewpointF,Max Humidity, Mean Humidity, Min Humidity, Max Sea Level PressureIn, Mean Sea Level PressureIn, Min Sea Level PressureIn, Max VisibilityMiles, Mean VisibilityMiles, Min VisibilityMiles, Max Wind SpeedMPH, Mean Wind SpeedMPH, Max Gust SpeedMPH,PrecipitationIn, CloudCover, Events, WindDirDegrees
2013-7-1,85,71,56,53,48,44,83,55,27,30.17,30.13,30.09,10,9,7,20,8,25,0.00,0,,357
2013-7-2,87,72,57,54,49,45,77,52,27,30.15,30.11,30.05,10,10,10,15,5,18,0.00,0,,19
2013-7-3,90,75,59,54,49,45,75,49,22,30.11,30.02,29.93,10,10,10,14,7,22,0.00,1,Thunderstorm,180
2013-7-4,93,79,65,56,52,49,59,41,23,29.99,29.92,29.85,10,10,9,22,11,25,0.01,1,Rain,161
2013-7-5,95,83,71,59,56,53,66,46,26,29.89,29.84,29.78,10,10,8,30,18,39,0.00,1,,167
2013-7-6,91,84,76,65,62,57,64,51,38,29.82,29.80,29.76,10,10,8,28,19,36,T,0,Rain,174
2013-7-7,102,89,76,64,61,56,64,44,24,29.88,29.84,29.80,10,10,9,29,17,36,T,0,,184
2013-7-8,103,88,73,69,63,56,79,51,23,29.97,29.92,29.86,10,10,10,28,14,36,0.02,1,Rain,178
2013-7-9,108,91,74,70,66,59,67,44,21,30.02,29.88,29.76,10,9,5,47,11,56,0.64,2,Rain-Thunderstorm,211
2013-7-10,94,82,70,71,67,61,93,66,38,30.01,29.97,29.94,10,10,10,16,9,24,0.00,0,,62
2013-7-11,91,80,69,69,66,63,90,67,44,30.15,29.98,29.91,10,9,2,28,11,33,0.74,2,Rain-Thunderstorm,122
2013-7-12,99,84,71,69,65,62,73,56,38,29.95,29.92,29.87,10,10,10,16,10,25,0.00,0,,153
2013-7-13,99,88,77,71,69,68,76,58,39,29.93,29.88,29.83,10,10,10,22,13,29,0.00,0,,152
2013-7-14,86,78,69,72,68,58,90,67,43,30.09,29.98,29.87,10,9,4,23,8,29,0.33,3,Rain-Thunderstorm,129
2013-7-15,89,77,65,71,64,59,84,63,42,30.18,30.13,30.09,10,9,2,29,6,37,0.18,2,Rain,134
2013-7-16,90,77,64,66,64,61,93,68,43,30.26,30.21,30.18,10,10,10,15,7,21,0.00,1,,155
2013-7-17,92,81,69,68,67,66,90,67,44,30.30,30.24,30.16,10,10,10,26,5,32,T,1,,155
2013-7-18,94,82,69,70,67,63,97,67,36,30.17,30.08,29.95,10,10,6,24,12,32,0.00,1,,181
2013-7-19,99,85,71,68,66,64,84,59,33,29.98,29.92,29.82,10,10,10,22,8,26,0.00,1,Thunderstorm,205
2013-7-20,96,84,71,70,68,65,90,63,36,29.92,29.87,29.80,10,9,2,23,7,29,0.37,3,Rain-Thunderstorm,100
2013-7-21,87,79,71,72,69,66,90,74,57,29.92,29.85,29.77,10,10,10,13,5,15,0.00,6,,171
2013-7-22,93,84,74,74,71,66,93,71,49,29.86,29.78,29.72,10,10,8,24,7,28,0.00,1,,172
2013-7-23,95,83,70,68,65,63,84,60,36,29.93,29.85,29.80,10,10,8,23,10,31,0.04,1,Rain,62
2013-7-24,90,79,67,65,61,55,84,58,32,30.06,30.00,29.94,10,10,10,14,7,18,0.00,0,,55
2013-7-25,80,74,67,72,66,61,93,81,68,30.06,30.02,29.98,10,9,2,15,6,18,0.59,4,Rain-Thunderstorm,126
2013-7-26,87,77,66,69,63,53,93,68,42,30.09,30.04,29.98,10,10,4,21,9,25,0.10,3,Rain-Thunderstorm,8
2013-7-27,71,66,60,57,55,53,84,71,57,30.17,30.08,30.00,10,10,4,15,6,17,0.14,5,Rain-Thunderstorm,62
2013-7-28,66,62,57,63,58,54,97,85,73,30.07,30.03,29.99,10,6,1,15,8,20,1.75,8,Rain,112
2013-7-29,72,68,63,70,65,60,97,91,84,30.03,29.97,29.90,10,8,0,17,7,21,0.85,8,Fog-Rain-Thunderstorm,113
2013-7-30,80,75,69,70,68,66,97,84,71,30.09,30.03,29.96,10,5,0,13,5,16,T,7,Fog-Rain,358
2013-7-31,87,76,65,70,67,64,97,74,50,30.17,30.11,30.04,10,6,0,9,2,14,0.00,4,Fog,329